<?xml version='1.0' encoding='UTF-8'?>
<gpx version="1.1" creator="https://www.komoot.de" xmlns="http://www.topografix.com/GPX/1/1" xmlns:xsi="http://www.w3.org/2001/XMLSchema-instance" xsi:schemaLocation="http://www.topografix.com/GPX/1/1 http://www.topografix.com/GPX/1/1/gpx.xsd">
  <metadata>
    <name>Gipfelsturm SMALL gesamt</name>
    <author>
      <link href="https://www.komoot.de">
        <text>komoot</text>
        <type>text/html</type>
      </link>
    </author>
  </metadata>
  <trk>
    <name>Gipfelsturm SMALL gesamt</name>
    <trkseg>
      <trkpt lat="47.138120" lon="15.419546">
        <ele>419.148082</ele>
        <time>2024-07-02T13:08:28.744Z</time>
      </trkpt>
      <trkpt lat="47.138561" lon="15.419318">
        <ele>419.148082</ele>
        <time>2024-07-02T13:08:38.303Z</time>
      </trkpt>
      <trkpt lat="47.138584" lon="15.419308">
        <ele>419.148082</ele>
        <time>2024-07-02T13:08:38.860Z</time>
      </trkpt>
      <trkpt lat="47.139240" lon="15.418985">
        <ele>419.362788</ele>
        <time>2024-07-02T13:08:53.219Z</time>
      </trkpt>
      <trkpt lat="47.139284" lon="15.418961">
        <ele>419.398274</ele>
        <time>2024-07-02T13:08:54.270Z</time>
      </trkpt>
      <trkpt lat="47.139368" lon="15.418917">
        <ele>419.465700</ele>
        <time>2024-07-02T13:08:56.066Z</time>
      </trkpt>
      <trkpt lat="47.139508" lon="15.418838">
        <ele>419.579087</ele>
        <time>2024-07-02T13:08:59.163Z</time>
      </trkpt>
      <trkpt lat="47.140295" lon="15.418367">
        <ele>420.221577</ele>
        <time>2024-07-02T13:09:18.331Z</time>
      </trkpt>
      <trkpt lat="47.140300" lon="15.418364">
        <ele>420.225660</ele>
        <time>2024-07-02T13:09:18.457Z</time>
      </trkpt>
      <trkpt lat="47.140472" lon="15.418286">
        <ele>420.361761</ele>
        <time>2024-07-02T13:09:22.816Z</time>
      </trkpt>
      <trkpt lat="47.140665" lon="15.418259">
        <ele>420.509003</ele>
        <time>2024-07-02T13:09:27.844Z</time>
      </trkpt>
      <trkpt lat="47.140826" lon="15.418302">
        <ele>420.930482</ele>
        <time>2024-07-02T13:09:32.069Z</time>
      </trkpt>
      <trkpt lat="47.141240" lon="15.418481">
        <ele>422.041993</ele>
        <time>2024-07-02T13:09:44.336Z</time>
      </trkpt>
      <trkpt lat="47.141435" lon="15.418549">
        <ele>422.558195</ele>
        <time>2024-07-02T13:09:50.275Z</time>
      </trkpt>
      <trkpt lat="47.141618" lon="15.418612">
        <ele>423.042304</ele>
        <time>2024-07-02T13:09:55.796Z</time>
      </trkpt>
      <trkpt lat="47.142206" lon="15.418638">
        <ele>424.557516</ele>
        <time>2024-07-02T13:10:15.115Z</time>
      </trkpt>
      <trkpt lat="47.142733" lon="15.418823">
        <ele>426.634257</ele>
        <time>2024-07-02T13:10:38.314Z</time>
      </trkpt>
      <trkpt lat="47.143236" lon="15.419007">
        <ele>429.089078</ele>
        <time>2024-07-02T13:11:01.439Z</time>
      </trkpt>
      <trkpt lat="47.143468" lon="15.419059">
        <ele>430.200517</ele>
        <time>2024-07-02T13:11:12.316Z</time>
      </trkpt>
      <trkpt lat="47.143630" lon="15.419059">
        <ele>430.967744</ele>
        <time>2024-07-02T13:11:19.520Z</time>
      </trkpt>
      <trkpt lat="47.143698" lon="15.419059">
        <ele>431.289790</ele>
        <time>2024-07-02T13:11:22.477Z</time>
      </trkpt>
      <trkpt lat="47.144001" lon="15.419048">
        <ele>432.725226</ele>
        <time>2024-07-02T13:11:35.561Z</time>
      </trkpt>
      <trkpt lat="47.144153" lon="15.419042">
        <ele>433.445352</ele>
        <time>2024-07-02T13:11:42.061Z</time>
      </trkpt>
      <trkpt lat="47.144323" lon="15.419036">
        <ele>434.035214</ele>
        <time>2024-07-02T13:11:48.908Z</time>
      </trkpt>
      <trkpt lat="47.144471" lon="15.419019">
        <ele>434.482140</ele>
        <time>2024-07-02T13:11:55.199Z</time>
      </trkpt>
      <trkpt lat="47.144818" lon="15.418859">
        <ele>435.576987</ele>
        <time>2024-07-02T13:12:09.829Z</time>
      </trkpt>
      <trkpt lat="47.145181" lon="15.418692">
        <ele>436.722085</ele>
        <time>2024-07-02T13:12:23.915Z</time>
      </trkpt>
      <trkpt lat="47.145218" lon="15.418677">
        <ele>436.837634</ele>
        <time>2024-07-02T13:12:25.025Z</time>
      </trkpt>
      <trkpt lat="47.145623" lon="15.418488">
        <ele>438.116870</ele>
        <time>2024-07-02T13:12:37.470Z</time>
      </trkpt>
      <trkpt lat="47.145719" lon="15.418431">
        <ele>438.428564</ele>
        <time>2024-07-02T13:12:40.222Z</time>
      </trkpt>
      <trkpt lat="47.147426" lon="15.417351">
        <ele>441.540020</ele>
        <time>2024-07-02T13:13:26.406Z</time>
      </trkpt>
      <trkpt lat="47.147904" lon="15.417093">
        <ele>443.112543</ele>
        <time>2024-07-02T13:13:42.745Z</time>
      </trkpt>
      <trkpt lat="47.148307" lon="15.416907">
        <ele>444.709957</ele>
        <time>2024-07-02T13:13:57.967Z</time>
      </trkpt>
      <trkpt lat="47.148495" lon="15.416825">
        <ele>445.451572</ele>
        <time>2024-07-02T13:14:05.827Z</time>
      </trkpt>
      <trkpt lat="47.149332" lon="15.416386">
        <ele>448.900266</ele>
        <time>2024-07-02T13:14:43.655Z</time>
      </trkpt>
      <trkpt lat="47.150177" lon="15.416004">
        <ele>453.478879</ele>
        <time>2024-07-02T13:15:23.398Z</time>
      </trkpt>
      <trkpt lat="47.150444" lon="15.416012">
        <ele>454.862018</ele>
        <time>2024-07-02T13:15:35.247Z</time>
      </trkpt>
      <trkpt lat="47.151708" lon="15.416373">
        <ele>461.991697</ele>
        <time>2024-07-02T13:16:35.332Z</time>
      </trkpt>
      <trkpt lat="47.152360" lon="15.416663">
        <ele>465.966154</ele>
        <time>2024-07-02T13:17:08.469Z</time>
      </trkpt>
      <trkpt lat="47.152841" lon="15.416890">
        <ele>469.037733</ele>
        <time>2024-07-02T13:17:33.929Z</time>
      </trkpt>
      <trkpt lat="47.153246" lon="15.416983">
        <ele>471.990352</ele>
        <time>2024-07-02T13:17:54.406Z</time>
      </trkpt>
      <trkpt lat="47.153947" lon="15.417178">
        <ele>477.129291</ele>
        <time>2024-07-02T13:18:32.809Z</time>
      </trkpt>
      <trkpt lat="47.153972" lon="15.417188">
        <ele>477.315912</ele>
        <time>2024-07-02T13:18:34.230Z</time>
      </trkpt>
      <trkpt lat="47.154713" lon="15.417409">
        <ele>483.485848</ele>
        <time>2024-07-02T13:19:19.173Z</time>
      </trkpt>
      <trkpt lat="47.154984" lon="15.417694">
        <ele>487.107420</ele>
        <time>2024-07-02T13:19:41.957Z</time>
      </trkpt>
      <trkpt lat="47.155048" lon="15.417773">
        <ele>488.015705</ele>
        <time>2024-07-02T13:19:47.594Z</time>
      </trkpt>
      <trkpt lat="47.155256" lon="15.418013">
        <ele>490.889590</ele>
        <time>2024-07-02T13:20:06.457Z</time>
      </trkpt>
      <trkpt lat="47.155285" lon="15.418173">
        <ele>492.113568</ele>
        <time>2024-07-02T13:20:15.768Z</time>
      </trkpt>
      <trkpt lat="47.155513" lon="15.418491">
        <ele>495.529358</ele>
        <time>2024-07-02T13:20:44.278Z</time>
      </trkpt>
      <trkpt lat="47.155594" lon="15.418614">
        <ele>496.795003</ele>
        <time>2024-07-02T13:20:55.352Z</time>
      </trkpt>
      <trkpt lat="47.155755" lon="15.418745">
        <ele>498.795110</ele>
        <time>2024-07-02T13:21:13.454Z</time>
      </trkpt>
      <trkpt lat="47.155992" lon="15.418932">
        <ele>501.702755</ele>
        <time>2024-07-02T13:21:41.071Z</time>
      </trkpt>
      <trkpt lat="47.156048" lon="15.419011">
        <ele>502.530000</ele>
        <time>2024-07-02T13:21:49.689Z</time>
      </trkpt>
      <trkpt lat="47.156128" lon="15.419119">
        <ele>503.687683</ele>
        <time>2024-07-02T13:21:59.150Z</time>
      </trkpt>
      <trkpt lat="47.156503" lon="15.419232">
        <ele>507.768347</ele>
        <time>2024-07-02T13:22:35.015Z</time>
      </trkpt>
      <trkpt lat="47.157051" lon="15.419504">
        <ele>513.933948</ele>
        <time>2024-07-02T13:23:22.372Z</time>
      </trkpt>
      <trkpt lat="47.157263" lon="15.419520">
        <ele>516.196901</ele>
        <time>2024-07-02T13:23:35.936Z</time>
      </trkpt>
      <trkpt lat="47.157323" lon="15.419575">
        <ele>516.950599</ele>
        <time>2024-07-02T13:23:41.035Z</time>
      </trkpt>
      <trkpt lat="47.157294" lon="15.419660">
        <ele>517.639959</ele>
        <time>2024-07-02T13:23:46.245Z</time>
      </trkpt>
      <trkpt lat="47.157256" lon="15.419689">
        <ele>518.096346</ele>
        <time>2024-07-02T13:23:48.673Z</time>
      </trkpt>
      <trkpt lat="47.157013" lon="15.419614">
        <ele>520.350847</ele>
        <time>2024-07-02T13:24:01.892Z</time>
      </trkpt>
      <trkpt lat="47.156006" lon="15.419757">
        <ele>524.888670</ele>
        <time>2024-07-02T13:24:46.291Z</time>
      </trkpt>
      <trkpt lat="47.155200" lon="15.419590">
        <ele>528.843987</ele>
        <time>2024-07-02T13:25:13.339Z</time>
      </trkpt>
      <trkpt lat="47.154875" lon="15.419651">
        <ele>531.414891</ele>
        <time>2024-07-02T13:25:27.982Z</time>
      </trkpt>
      <trkpt lat="47.154471" lon="15.419667">
        <ele>534.586156</ele>
        <time>2024-07-02T13:25:50.573Z</time>
      </trkpt>
      <trkpt lat="47.154154" lon="15.420075">
        <ele>537.891780</ele>
        <time>2024-07-02T13:26:20.028Z</time>
      </trkpt>
      <trkpt lat="47.154027" lon="15.420181">
        <ele>539.037657</ele>
        <time>2024-07-02T13:26:30.165Z</time>
      </trkpt>
      <trkpt lat="47.153450" lon="15.420531">
        <ele>545.039741</ele>
        <time>2024-07-02T13:27:16.168Z</time>
      </trkpt>
      <trkpt lat="47.153034" lon="15.420659">
        <ele>550.556356</ele>
        <time>2024-07-02T13:27:51.582Z</time>
      </trkpt>
      <trkpt lat="47.153006" lon="15.420717">
        <ele>551.184205</ele>
        <time>2024-07-02T13:27:57.385Z</time>
      </trkpt>
      <trkpt lat="47.153012" lon="15.420775">
        <ele>551.702058</ele>
        <time>2024-07-02T13:28:02.319Z</time>
      </trkpt>
      <trkpt lat="47.153057" lon="15.420834">
        <ele>552.484614</ele>
        <time>2024-07-02T13:28:07.497Z</time>
      </trkpt>
      <trkpt lat="47.153256" lon="15.420803">
        <ele>555.082085</ele>
        <time>2024-07-02T13:28:22.770Z</time>
      </trkpt>
      <trkpt lat="47.154003" lon="15.420954">
        <ele>564.869317</ele>
        <time>2024-07-02T13:29:32.380Z</time>
      </trkpt>
      <trkpt lat="47.154179" lon="15.420961">
        <ele>567.386452</ele>
        <time>2024-07-02T13:29:49.582Z</time>
      </trkpt>
      <trkpt lat="47.155016" lon="15.420870">
        <ele>579.898035</ele>
        <time>2024-07-02T13:31:04.896Z</time>
      </trkpt>
      <trkpt lat="47.155837" lon="15.421163">
        <ele>592.480635</ele>
        <time>2024-07-02T13:32:32.002Z</time>
      </trkpt>
      <trkpt lat="47.156149" lon="15.421355">
        <ele>596.835965</ele>
        <time>2024-07-02T13:33:07.364Z</time>
      </trkpt>
      <trkpt lat="47.157096" lon="15.422483">
        <ele>612.529199</ele>
        <time>2024-07-02T13:34:56.901Z</time>
      </trkpt>
      <trkpt lat="47.157334" lon="15.422675">
        <ele>615.784460</ele>
        <time>2024-07-02T13:35:13.640Z</time>
      </trkpt>
      <trkpt lat="47.157682" lon="15.422786">
        <ele>617.954867</ele>
        <time>2024-07-02T13:35:30.594Z</time>
      </trkpt>
      <trkpt lat="47.158273" lon="15.422842">
        <ele>621.564532</ele>
        <time>2024-07-02T13:35:59.494Z</time>
      </trkpt>
      <trkpt lat="47.158433" lon="15.422892">
        <ele>622.561519</ele>
        <time>2024-07-02T13:36:07.321Z</time>
      </trkpt>
      <trkpt lat="47.158507" lon="15.422796">
        <ele>623.162964</ele>
        <time>2024-07-02T13:36:11.865Z</time>
      </trkpt>
      <trkpt lat="47.158527" lon="15.422709">
        <ele>623.543583</ele>
        <time>2024-07-02T13:36:14.883Z</time>
      </trkpt>
      <trkpt lat="47.158511" lon="15.422468">
        <ele>624.547155</ele>
        <time>2024-07-02T13:36:22.566Z</time>
      </trkpt>
      <trkpt lat="47.158540" lon="15.422342">
        <ele>625.098464</ele>
        <time>2024-07-02T13:36:26.202Z</time>
      </trkpt>
      <trkpt lat="47.158660" lon="15.422107">
        <ele>626.316474</ele>
        <time>2024-07-02T13:36:35.691Z</time>
      </trkpt>
      <trkpt lat="47.158872" lon="15.421863">
        <ele>628.801778</ele>
        <time>2024-07-02T13:36:48.660Z</time>
      </trkpt>
      <trkpt lat="47.158965" lon="15.421820">
        <ele>629.747862</ele>
        <time>2024-07-02T13:36:53.054Z</time>
      </trkpt>
      <trkpt lat="47.159149" lon="15.421857">
        <ele>631.550128</ele>
        <time>2024-07-02T13:37:02.974Z</time>
      </trkpt>
      <trkpt lat="47.159388" lon="15.421985">
        <ele>634.018542</ele>
        <time>2024-07-02T13:37:17.620Z</time>
      </trkpt>
      <trkpt lat="47.160300" lon="15.422654">
        <ele>643.909025</ele>
        <time>2024-07-02T13:38:40.615Z</time>
      </trkpt>
      <trkpt lat="47.160669" lon="15.423065">
        <ele>650.784910</ele>
        <time>2024-07-02T13:39:24.071Z</time>
      </trkpt>
      <trkpt lat="47.161109" lon="15.423370">
        <ele>658.054460</ele>
        <time>2024-07-02T13:40:10.836Z</time>
      </trkpt>
      <trkpt lat="47.162123" lon="15.424594">
        <ele>678.025508</ele>
        <time>2024-07-02T13:42:23.747Z</time>
      </trkpt>
      <trkpt lat="47.162792" lon="15.425160">
        <ele>690.181942</ele>
        <time>2024-07-02T13:43:41.977Z</time>
      </trkpt>
      <trkpt lat="47.163240" lon="15.425605">
        <ele>698.696905</ele>
        <time>2024-07-02T13:44:34.964Z</time>
      </trkpt>
      <trkpt lat="47.163337" lon="15.425674">
        <ele>700.296721</ele>
        <time>2024-07-02T13:44:45.666Z</time>
      </trkpt>
      <trkpt lat="47.163458" lon="15.425827">
        <ele>702.605651</ele>
        <time>2024-07-02T13:45:01.053Z</time>
      </trkpt>
      <trkpt lat="47.163573" lon="15.426241">
        <ele>707.005431</ele>
        <time>2024-07-02T13:45:31.275Z</time>
      </trkpt>
      <trkpt lat="47.163632" lon="15.426226">
        <ele>707.871806</ele>
        <time>2024-07-02T13:45:36.796Z</time>
      </trkpt>
      <trkpt lat="47.163656" lon="15.426222">
        <ele>708.221302</ele>
        <time>2024-07-02T13:45:39.066Z</time>
      </trkpt>
      <trkpt lat="47.163863" lon="15.426224">
        <ele>711.216603</ele>
        <time>2024-07-02T13:45:59.020Z</time>
      </trkpt>
      <trkpt lat="47.164068" lon="15.426220">
        <ele>714.183160</ele>
        <time>2024-07-02T13:46:18.314Z</time>
      </trkpt>
      <trkpt lat="47.164360" lon="15.426175">
        <ele>718.431454</ele>
        <time>2024-07-02T13:46:45.352Z</time>
      </trkpt>
      <trkpt lat="47.164429" lon="15.426138">
        <ele>719.494151</ele>
        <time>2024-07-02T13:46:52.232Z</time>
      </trkpt>
      <trkpt lat="47.164799" lon="15.425906">
        <ele>725.278122</ele>
        <time>2024-07-02T13:47:27.313Z</time>
      </trkpt>
      <trkpt lat="47.165124" lon="15.425886">
        <ele>728.118131</ele>
        <time>2024-07-02T13:47:53.878Z</time>
      </trkpt>
      <trkpt lat="47.165191" lon="15.425892">
        <ele>728.704181</ele>
        <time>2024-07-02T13:47:58.740Z</time>
      </trkpt>
      <trkpt lat="47.165614" lon="15.425853">
        <ele>732.404580</ele>
        <time>2024-07-02T13:48:28.625Z</time>
      </trkpt>
      <trkpt lat="47.165775" lon="15.425711">
        <ele>734.043599</ele>
        <time>2024-07-02T13:48:40.887Z</time>
      </trkpt>
      <trkpt lat="47.165983" lon="15.425273">
        <ele>737.214964</ele>
        <time>2024-07-02T13:49:02.209Z</time>
      </trkpt>
      <trkpt lat="47.166129" lon="15.424791">
        <ele>740.347179</ele>
        <time>2024-07-02T13:49:19.002Z</time>
      </trkpt>
      <trkpt lat="47.166254" lon="15.424552">
        <ele>741.148771</ele>
        <time>2024-07-02T13:49:26.155Z</time>
      </trkpt>
      <trkpt lat="47.166468" lon="15.424234">
        <ele>741.635564</ele>
        <time>2024-07-02T13:49:35.428Z</time>
      </trkpt>
      <trkpt lat="47.166548" lon="15.424051">
        <ele>741.872267</ele>
        <time>2024-07-02T13:49:39.651Z</time>
      </trkpt>
      <trkpt lat="47.166560" lon="15.423783">
        <ele>742.164470</ele>
        <time>2024-07-02T13:49:43.883Z</time>
      </trkpt>
      <trkpt lat="47.166539" lon="15.423511">
        <ele>742.462295</ele>
        <time>2024-07-02T13:49:48.313Z</time>
      </trkpt>
      <trkpt lat="47.166249" lon="15.422685">
        <ele>743.473698</ele>
        <time>2024-07-02T13:50:01.239Z</time>
      </trkpt>
      <trkpt lat="47.166226" lon="15.422290">
        <ele>743.894043</ele>
        <time>2024-07-02T13:50:06.875Z</time>
      </trkpt>
      <trkpt lat="47.166295" lon="15.421934">
        <ele>744.252501</ele>
        <time>2024-07-02T13:50:12.053Z</time>
      </trkpt>
      <trkpt lat="47.166351" lon="15.421760">
        <ele>744.438914</ele>
        <time>2024-07-02T13:50:14.627Z</time>
      </trkpt>
      <trkpt lat="47.167069" lon="15.420429">
        <ele>746.084163</ele>
        <time>2024-07-02T13:50:52.469Z</time>
      </trkpt>
      <trkpt lat="47.167195" lon="15.420400">
        <ele>746.265805</ele>
        <time>2024-07-02T13:50:58.155Z</time>
      </trkpt>
      <trkpt lat="47.167331" lon="15.420238">
        <ele>746.121622</ele>
        <time>2024-07-02T13:51:03.497Z</time>
      </trkpt>
      <trkpt lat="47.167806" lon="15.420017">
        <ele>744.945740</ele>
        <time>2024-07-02T13:51:17.380Z</time>
      </trkpt>
      <trkpt lat="47.168227" lon="15.419889">
        <ele>743.931056</ele>
        <time>2024-07-02T13:51:28.521Z</time>
      </trkpt>
      <trkpt lat="47.168276" lon="15.419655">
        <ele>743.538165</ele>
        <time>2024-07-02T13:51:32.556Z</time>
      </trkpt>
      <trkpt lat="47.168379" lon="15.419171">
        <ele>742.724364</ele>
        <time>2024-07-02T13:51:41.030Z</time>
      </trkpt>
      <trkpt lat="47.168280" lon="15.418862">
        <ele>742.176232</ele>
        <time>2024-07-02T13:51:47.091Z</time>
      </trkpt>
      <trkpt lat="47.168273" lon="15.418642">
        <ele>741.753339</ele>
        <time>2024-07-02T13:51:51.107Z</time>
      </trkpt>
      <trkpt lat="47.168297" lon="15.418489">
        <ele>741.442797</ele>
        <time>2024-07-02T13:51:54.059Z</time>
      </trkpt>
      <trkpt lat="47.168324" lon="15.418409">
        <ele>741.266156</ele>
        <time>2024-07-02T13:51:55.798Z</time>
      </trkpt>
      <trkpt lat="47.168382" lon="15.418452">
        <ele>741.077211</ele>
        <time>2024-07-02T13:51:57.714Z</time>
      </trkpt>
      <trkpt lat="47.168474" lon="15.418463">
        <ele>740.808694</ele>
        <time>2024-07-02T13:51:59.994Z</time>
      </trkpt>
      <trkpt lat="47.168554" lon="15.418568">
        <ele>740.496791</ele>
        <time>2024-07-02T13:52:01.579Z</time>
      </trkpt>
      <trkpt lat="47.169101" lon="15.419022">
        <ele>738.669693</ele>
        <time>2024-07-02T13:52:10.303Z</time>
      </trkpt>
      <trkpt lat="47.169238" lon="15.419218">
        <ele>738.113735</ele>
        <time>2024-07-02T13:52:13.040Z</time>
      </trkpt>
      <trkpt lat="47.169466" lon="15.419759">
        <ele>736.915986</ele>
        <time>2024-07-02T13:52:21.418Z</time>
      </trkpt>
      <trkpt lat="47.169895" lon="15.420433">
        <ele>738.330537</ele>
        <time>2024-07-02T13:52:42.655Z</time>
      </trkpt>
      <trkpt lat="47.169941" lon="15.420548">
        <ele>738.534958</ele>
        <time>2024-07-02T13:52:46.834Z</time>
      </trkpt>
      <trkpt lat="47.170020" lon="15.421218">
        <ele>739.576753</ele>
        <time>2024-07-02T13:53:03.791Z</time>
      </trkpt>
      <trkpt lat="47.169984" lon="15.421611">
        <ele>740.184288</ele>
        <time>2024-07-02T13:53:13.827Z</time>
      </trkpt>
      <trkpt lat="47.169876" lon="15.422456">
        <ele>741.690571</ele>
        <time>2024-07-02T13:53:28.928Z</time>
      </trkpt>
      <trkpt lat="47.169861" lon="15.422711">
        <ele>742.215340</ele>
        <time>2024-07-02T13:53:34.564Z</time>
      </trkpt>
      <trkpt lat="47.170007" lon="15.423611">
        <ele>744.112379</ele>
        <time>2024-07-02T13:53:59.625Z</time>
      </trkpt>
      <trkpt lat="47.170095" lon="15.423785">
        <ele>744.557014</ele>
        <time>2024-07-02T13:54:05.620Z</time>
      </trkpt>
      <trkpt lat="47.170220" lon="15.423826">
        <ele>744.943254</ele>
        <time>2024-07-02T13:54:10.487Z</time>
      </trkpt>
      <trkpt lat="47.170895" lon="15.423793">
        <ele>747.221339</ele>
        <time>2024-07-02T13:54:33.530Z</time>
      </trkpt>
      <trkpt lat="47.171074" lon="15.423859">
        <ele>747.996946</ele>
        <time>2024-07-02T13:54:39.564Z</time>
      </trkpt>
      <trkpt lat="47.171223" lon="15.423979">
        <ele>748.710906</ele>
        <time>2024-07-02T13:54:45.176Z</time>
      </trkpt>
      <trkpt lat="47.171741" lon="15.424179">
        <ele>750.961792</ele>
        <time>2024-07-02T13:55:05.648Z</time>
      </trkpt>
      <trkpt lat="47.172433" lon="15.424248">
        <ele>753.876925</ele>
        <time>2024-07-02T13:55:37.750Z</time>
      </trkpt>
      <trkpt lat="47.172616" lon="15.424263">
        <ele>755.209447</ele>
        <time>2024-07-02T13:55:47.436Z</time>
      </trkpt>
      <trkpt lat="47.172851" lon="15.424336">
        <ele>757.006657</ele>
        <time>2024-07-02T13:56:00.821Z</time>
      </trkpt>
      <trkpt lat="47.173001" lon="15.424439">
        <ele>758.245319</ele>
        <time>2024-07-02T13:56:10.507Z</time>
      </trkpt>
      <trkpt lat="47.173339" lon="15.425095">
        <ele>762.432317</ele>
        <time>2024-07-02T13:56:44.495Z</time>
      </trkpt>
      <trkpt lat="47.173582" lon="15.426289">
        <ele>769.013122</ele>
        <time>2024-07-02T13:57:35.564Z</time>
      </trkpt>
      <trkpt lat="47.173593" lon="15.426440">
        <ele>769.919898</ele>
        <time>2024-07-02T13:57:41.928Z</time>
      </trkpt>
      <trkpt lat="47.173521" lon="15.426989">
        <ele>773.258400</ele>
        <time>2024-07-02T13:58:04.373Z</time>
      </trkpt>
      <trkpt lat="47.173540" lon="15.427149">
        <ele>774.228221</ele>
        <time>2024-07-02T13:58:10.525Z</time>
      </trkpt>
      <trkpt lat="47.173484" lon="15.427818">
        <ele>778.252964</ele>
        <time>2024-07-02T13:58:40.720Z</time>
      </trkpt>
      <trkpt lat="47.173494" lon="15.428198">
        <ele>780.523629</ele>
        <time>2024-07-02T13:58:58.885Z</time>
      </trkpt>
      <trkpt lat="47.173460" lon="15.428617">
        <ele>783.043225</ele>
        <time>2024-07-02T13:59:19.179Z</time>
      </trkpt>
      <trkpt lat="47.173481" lon="15.429170">
        <ele>787.363776</ele>
        <time>2024-07-02T13:59:45.931Z</time>
      </trkpt>
      <trkpt lat="47.173449" lon="15.429433">
        <ele>789.469746</ele>
        <time>2024-07-02T13:59:59.071Z</time>
      </trkpt>
      <trkpt lat="47.173317" lon="15.429959">
        <ele>793.889298</ele>
        <time>2024-07-02T14:00:28.862Z</time>
      </trkpt>
      <trkpt lat="47.173150" lon="15.430428">
        <ele>798.062528</ele>
        <time>2024-07-02T14:00:59.044Z</time>
      </trkpt>
      <trkpt lat="47.173021" lon="15.430628">
        <ele>800.235680</ele>
        <time>2024-07-02T14:01:15.186Z</time>
      </trkpt>
      <trkpt lat="47.172331" lon="15.431389">
        <ele>809.858711</ele>
        <time>2024-07-02T14:02:30.947Z</time>
      </trkpt>
      <trkpt lat="47.171864" lon="15.431863">
        <ele>816.037666</ele>
        <time>2024-07-02T14:03:13.794Z</time>
      </trkpt>
      <trkpt lat="47.171535" lon="15.432106">
        <ele>820.046884</ele>
        <time>2024-07-02T14:03:39.775Z</time>
      </trkpt>
      <trkpt lat="47.171304" lon="15.432186">
        <ele>822.631338</ele>
        <time>2024-07-02T14:03:55.926Z</time>
      </trkpt>
      <trkpt lat="47.170557" lon="15.432246">
        <ele>828.460780</ele>
        <time>2024-07-02T14:04:43.457Z</time>
      </trkpt>
      <trkpt lat="47.170009" lon="15.432120">
        <ele>832.543303</ele>
        <time>2024-07-02T14:05:13.160Z</time>
      </trkpt>
      <trkpt lat="47.169577" lon="15.431964">
        <ele>835.817447</ele>
        <time>2024-07-02T14:05:36.625Z</time>
      </trkpt>
      <trkpt lat="47.169278" lon="15.431858">
        <ele>838.380643</ele>
        <time>2024-07-02T14:05:53.196Z</time>
      </trkpt>
      <trkpt lat="47.169159" lon="15.431877">
        <ele>839.478861</ele>
        <time>2024-07-02T14:05:59.469Z</time>
      </trkpt>
      <trkpt lat="47.168988" lon="15.431981">
        <ele>841.176574</ele>
        <time>2024-07-02T14:06:10.576Z</time>
      </trkpt>
      <trkpt lat="47.168881" lon="15.432174">
        <ele>842.729934</ele>
        <time>2024-07-02T14:06:20.610Z</time>
      </trkpt>
      <trkpt lat="47.168826" lon="15.432386">
        <ele>844.145278</ele>
        <time>2024-07-02T14:06:32.326Z</time>
      </trkpt>
      <trkpt lat="47.168816" lon="15.432545">
        <ele>845.141263</ele>
        <time>2024-07-02T14:06:40.689Z</time>
      </trkpt>
      <trkpt lat="47.168878" lon="15.432797">
        <ele>846.812856</ele>
        <time>2024-07-02T14:06:54.919Z</time>
      </trkpt>
      <trkpt lat="47.168967" lon="15.432998">
        <ele>848.309045</ele>
        <time>2024-07-02T14:07:08.538Z</time>
      </trkpt>
      <trkpt lat="47.169149" lon="15.433108">
        <ele>850.114327</ele>
        <time>2024-07-02T14:07:24.681Z</time>
      </trkpt>
      <trkpt lat="47.169289" lon="15.433279">
        <ele>851.783906</ele>
        <time>2024-07-02T14:07:40.502Z</time>
      </trkpt>
      <trkpt lat="47.169449" lon="15.433282">
        <ele>853.251998</ele>
        <time>2024-07-02T14:07:54.658Z</time>
      </trkpt>
      <trkpt lat="47.170356" lon="15.433939">
        <ele>866.728706</ele>
        <time>2024-07-02T14:09:33.028Z</time>
      </trkpt>
      <trkpt lat="47.170714" lon="15.434363">
        <ele>872.879752</ele>
        <time>2024-07-02T14:10:20.444Z</time>
      </trkpt>
      <trkpt lat="47.171540" lon="15.434837">
        <ele>885.552200</ele>
        <time>2024-07-02T14:11:53.469Z</time>
      </trkpt>
      <trkpt lat="47.172242" lon="15.435436">
        <ele>897.612559</ele>
        <time>2024-07-02T14:13:18.599Z</time>
      </trkpt>
      <trkpt lat="47.172546" lon="15.435695">
        <ele>902.833260</ele>
        <time>2024-07-02T14:13:57.865Z</time>
      </trkpt>
      <trkpt lat="47.172980" lon="15.436128">
        <ele>910.207369</ele>
        <time>2024-07-02T14:14:55.206Z</time>
      </trkpt>
      <trkpt lat="47.173402" lon="15.436720">
        <ele>918.310844</ele>
        <time>2024-07-02T14:15:58.344Z</time>
      </trkpt>
      <trkpt lat="47.173629" lon="15.436968">
        <ele>922.240173</ele>
        <time>2024-07-02T14:16:26.972Z</time>
      </trkpt>
      <trkpt lat="47.174472" lon="15.437646">
        <ele>934.431153</ele>
        <time>2024-07-02T14:17:51.804Z</time>
      </trkpt>
      <trkpt lat="47.174488" lon="15.437701">
        <ele>934.894254</ele>
        <time>2024-07-02T14:17:55.972Z</time>
      </trkpt>
      <trkpt lat="47.174920" lon="15.437785">
        <ele>939.856502</ele>
        <time>2024-07-02T14:18:31.926Z</time>
      </trkpt>
      <trkpt lat="47.175192" lon="15.437633">
        <ele>943.169890</ele>
        <time>2024-07-02T14:18:56.431Z</time>
      </trkpt>
      <trkpt lat="47.175426" lon="15.437560">
        <ele>945.893855</ele>
        <time>2024-07-02T14:19:17.485Z</time>
      </trkpt>
      <trkpt lat="47.175629" lon="15.437525">
        <ele>948.221368</ele>
        <time>2024-07-02T14:19:37.896Z</time>
      </trkpt>
      <trkpt lat="47.176054" lon="15.437566">
        <ele>953.766884</ele>
        <time>2024-07-02T14:20:18.100Z</time>
      </trkpt>
      <trkpt lat="47.176499" lon="15.437712">
        <ele>960.013091</ele>
        <time>2024-07-02T14:21:01.418Z</time>
      </trkpt>
      <trkpt lat="47.177030" lon="15.438041">
        <ele>967.906556</ele>
        <time>2024-07-02T14:22:01.084Z</time>
      </trkpt>
      <trkpt lat="47.178162" lon="15.439000">
        <ele>985.806045</ele>
        <time>2024-07-02T14:24:20.474Z</time>
      </trkpt>
      <trkpt lat="47.178647" lon="15.439346">
        <ele>993.192865</ele>
        <time>2024-07-02T14:25:12.724Z</time>
      </trkpt>
      <trkpt lat="47.179838" lon="15.440095">
        <ele>1009.630550</ele>
        <time>2024-07-02T14:27:13.951Z</time>
      </trkpt>
      <trkpt lat="47.180185" lon="15.440240">
        <ele>1014.033499</ele>
        <time>2024-07-02T14:27:47.466Z</time>
      </trkpt>
      <trkpt lat="47.181325" lon="15.440584">
        <ele>1027.993773</ele>
        <time>2024-07-02T14:29:34.028Z</time>
      </trkpt>
      <trkpt lat="47.181899" lon="15.440888">
        <ele>1035.192679</ele>
        <time>2024-07-02T14:30:28.720Z</time>
      </trkpt>
      <trkpt lat="47.182385" lon="15.441232">
        <ele>1041.556820</ele>
        <time>2024-07-02T14:31:18.528Z</time>
      </trkpt>
      <trkpt lat="47.182969" lon="15.441728">
        <ele>1048.863530</ele>
        <time>2024-07-02T14:32:19.725Z</time>
      </trkpt>
      <trkpt lat="47.183493" lon="15.442280">
        <ele>1055.799760</ele>
        <time>2024-07-02T14:33:15.227Z</time>
      </trkpt>
      <trkpt lat="47.183900" lon="15.442649">
        <ele>1060.945093</ele>
        <time>2024-07-02T14:33:54.760Z</time>
      </trkpt>
      <trkpt lat="47.183931" lon="15.442664">
        <ele>1061.296321</ele>
        <time>2024-07-02T14:33:57.322Z</time>
      </trkpt>
      <trkpt lat="47.184162" lon="15.442927">
        <ele>1063.865488</ele>
        <time>2024-07-02T14:34:20.087Z</time>
      </trkpt>
      <trkpt lat="47.184187" lon="15.442967">
        <ele>1064.185995</ele>
        <time>2024-07-02T14:34:22.967Z</time>
      </trkpt>
      <trkpt lat="47.184238" lon="15.443044">
        <ele>1064.820123</ele>
        <time>2024-07-02T14:34:28.178Z</time>
      </trkpt>
      <trkpt lat="47.184308" lon="15.443216">
        <ele>1066.002538</ele>
        <time>2024-07-02T14:34:37.462Z</time>
      </trkpt>
      <trkpt lat="47.184252" lon="15.443586">
        <ele>1068.238228</ele>
        <time>2024-07-02T14:34:55.831Z</time>
      </trkpt>
      <trkpt lat="47.184238" lon="15.444036">
        <ele>1070.895078</ele>
        <time>2024-07-02T14:35:17.457Z</time>
      </trkpt>
      <trkpt lat="47.184143" lon="15.444236">
        <ele>1072.334202</ele>
        <time>2024-07-02T14:35:28.811Z</time>
      </trkpt>
      <trkpt lat="47.184108" lon="15.444407">
        <ele>1073.387494</ele>
        <time>2024-07-02T14:35:38.107Z</time>
      </trkpt>
      <trkpt lat="47.184089" lon="15.444674">
        <ele>1074.970855</ele>
        <time>2024-07-02T14:35:51.515Z</time>
      </trkpt>
      <trkpt lat="47.184105" lon="15.444847">
        <ele>1076.000604</ele>
        <time>2024-07-02T14:36:00.431Z</time>
      </trkpt>
      <trkpt lat="47.184141" lon="15.444907">
        <ele>1076.472650</ele>
        <time>2024-07-02T14:36:04.826Z</time>
      </trkpt>
      <trkpt lat="47.184387" lon="15.445113">
        <ele>1079.263090</ele>
        <time>2024-07-02T14:36:27.679Z</time>
      </trkpt>
      <trkpt lat="47.184517" lon="15.445482">
        <ele>1082.158137</ele>
        <time>2024-07-02T14:36:51.525Z</time>
      </trkpt>
      <trkpt lat="47.184586" lon="15.445607">
        <ele>1083.279815</ele>
        <time>2024-07-02T14:37:00.383Z</time>
      </trkpt>
      <trkpt lat="47.184726" lon="15.445950">
        <ele>1086.066695</ele>
        <time>2024-07-02T14:37:22.604Z</time>
      </trkpt>
      <trkpt lat="47.185205" lon="15.447118">
        <ele>1095.572453</ele>
        <time>2024-07-02T14:38:40.354Z</time>
      </trkpt>
      <trkpt lat="47.185346" lon="15.447207">
        <ele>1097.260328</ele>
        <time>2024-07-02T14:38:54.311Z</time>
      </trkpt>
      <trkpt lat="47.185392" lon="15.447185">
        <ele>1097.792444</ele>
        <time>2024-07-02T14:38:58.413Z</time>
      </trkpt>
      <trkpt lat="47.185540" lon="15.446970">
        <ele>1100.080455</ele>
        <time>2024-07-02T14:39:17.252Z</time>
      </trkpt>
      <trkpt lat="47.185796" lon="15.447025">
        <ele>1102.926624</ele>
        <time>2024-07-02T14:39:42.028Z</time>
      </trkpt>
      <trkpt lat="47.186092" lon="15.447012">
        <ele>1106.184428</ele>
        <time>2024-07-02T14:40:09.905Z</time>
      </trkpt>
      <trkpt lat="47.186359" lon="15.447012">
        <ele>1109.121746</ele>
        <time>2024-07-02T14:40:33.686Z</time>
      </trkpt>
      <trkpt lat="47.186470" lon="15.447099">
        <ele>1110.505316</ele>
        <time>2024-07-02T14:40:43.635Z</time>
      </trkpt>
      <trkpt lat="47.186705" lon="15.447549">
        <ele>1114.748334</ele>
        <time>2024-07-02T14:41:15.087Z</time>
      </trkpt>
      <trkpt lat="47.186784" lon="15.447599">
        <ele>1115.592634</ele>
        <time>2024-07-02T14:41:21.872Z</time>
      </trkpt>
      <trkpt lat="47.186893" lon="15.447772">
        <ele>1116.896588</ele>
        <time>2024-07-02T14:41:35.199Z</time>
      </trkpt>
      <trkpt lat="47.186931" lon="15.447977">
        <ele>1118.071092</ele>
        <time>2024-07-02T14:41:45.758Z</time>
      </trkpt>
      <trkpt lat="47.186881" lon="15.448368">
        <ele>1120.270219</ele>
        <time>2024-07-02T14:42:06.383Z</time>
      </trkpt>
      <trkpt lat="47.186822" lon="15.448601">
        <ele>1121.644589</ele>
        <time>2024-07-02T14:42:18.327Z</time>
      </trkpt>
      <trkpt lat="47.186795" lon="15.448965">
        <ele>1123.668504</ele>
        <time>2024-07-02T14:42:35.296Z</time>
      </trkpt>
      <trkpt lat="47.186991" lon="15.449265">
        <ele>1125.968682</ele>
        <time>2024-07-02T14:42:51.568Z</time>
      </trkpt>
      <trkpt lat="47.187083" lon="15.449589">
        <ele>1127.909576</ele>
        <time>2024-07-02T14:43:04.926Z</time>
      </trkpt>
      <trkpt lat="47.187087" lon="15.449604">
        <ele>1127.998641</ele>
        <time>2024-07-02T14:43:05.610Z</time>
      </trkpt>
      <trkpt lat="47.187154" lon="15.450021">
        <ele>1130.384762</ele>
        <time>2024-07-02T14:43:22.003Z</time>
      </trkpt>
      <trkpt lat="47.187387" lon="15.450997">
        <ele>1136.335283</ele>
        <time>2024-07-02T14:44:00.681Z</time>
      </trkpt>
      <trkpt lat="47.187467" lon="15.451187">
        <ele>1137.620972</ele>
        <time>2024-07-02T14:44:10.074Z</time>
      </trkpt>
      <trkpt lat="47.187557" lon="15.451318">
        <ele>1138.692478</ele>
        <time>2024-07-02T14:44:17.957Z</time>
      </trkpt>
      <trkpt lat="47.187760" lon="15.451504">
        <ele>1140.716581</ele>
        <time>2024-07-02T14:44:33.112Z</time>
      </trkpt>
      <trkpt lat="47.187897" lon="15.451555">
        <ele>1141.912701</ele>
        <time>2024-07-02T14:44:42.319Z</time>
      </trkpt>
      <trkpt lat="47.188306" lon="15.451522">
        <ele>1145.428076</ele>
        <time>2024-07-02T14:45:10.109Z</time>
      </trkpt>
      <trkpt lat="47.188794" lon="15.451361">
        <ele>1150.578335</ele>
        <time>2024-07-02T14:45:45.859Z</time>
      </trkpt>
      <trkpt lat="47.188948" lon="15.451291">
        <ele>1152.238189</ele>
        <time>2024-07-02T14:45:57.640Z</time>
      </trkpt>
      <trkpt lat="47.189512" lon="15.450950">
        <ele>1158.517504</ele>
        <time>2024-07-02T14:46:41.604Z</time>
      </trkpt>
      <trkpt lat="47.189833" lon="15.450652">
        <ele>1162.426086</ele>
        <time>2024-07-02T14:47:08.290Z</time>
      </trkpt>
      <trkpt lat="47.189958" lon="15.450577">
        <ele>1163.803340</ele>
        <time>2024-07-02T14:47:17.735Z</time>
      </trkpt>
      <trkpt lat="47.190364" lon="15.450575">
        <ele>1167.590323</ele>
        <time>2024-07-02T14:47:45.887Z</time>
      </trkpt>
      <trkpt lat="47.190633" lon="15.450605">
        <ele>1170.106613</ele>
        <time>2024-07-02T14:48:05.181Z</time>
      </trkpt>
      <trkpt lat="47.191518" lon="15.450814">
        <ele>1178.467068</ele>
        <time>2024-07-02T14:49:05.018Z</time>
      </trkpt>
      <trkpt lat="47.191884" lon="15.450782">
        <ele>1181.442569</ele>
        <time>2024-07-02T14:49:25.546Z</time>
      </trkpt>
      <trkpt lat="47.192185" lon="15.450846">
        <ele>1183.398272</ele>
        <time>2024-07-02T14:49:41.729Z</time>
      </trkpt>
      <trkpt lat="47.192394" lon="15.450949">
        <ele>1184.815627</ele>
        <time>2024-07-02T14:49:53.604Z</time>
      </trkpt>
      <trkpt lat="47.192457" lon="15.451035">
        <ele>1185.368217</ele>
        <time>2024-07-02T14:49:57.589Z</time>
      </trkpt>
      <trkpt lat="47.192459" lon="15.451160">
        <ele>1185.914596</ele>
        <time>2024-07-02T14:50:01.561Z</time>
      </trkpt>
      <trkpt lat="47.192257" lon="15.451567">
        <ele>1188.116975</ele>
        <time>2024-07-02T14:50:18.541Z</time>
      </trkpt>
      <trkpt lat="47.191934" lon="15.452379">
        <ele>1192.236565</ele>
        <time>2024-07-02T14:50:50.017Z</time>
      </trkpt>
      <trkpt lat="47.191529" lon="15.453172">
        <ele>1196.740695</ele>
        <time>2024-07-02T14:51:19.771Z</time>
      </trkpt>
      <trkpt lat="47.191436" lon="15.453398">
        <ele>1197.940331</ele>
        <time>2024-07-02T14:51:28.294Z</time>
      </trkpt>
      <trkpt lat="47.191263" lon="15.453641">
        <ele>1199.538310</ele>
        <time>2024-07-02T14:51:40.168Z</time>
      </trkpt>
      <trkpt lat="47.191121" lon="15.453967">
        <ele>1201.296504</ele>
        <time>2024-07-02T14:51:54.727Z</time>
      </trkpt>
      <trkpt lat="47.190903" lon="15.454668">
        <ele>1205.131692</ele>
        <time>2024-07-02T14:52:27.587Z</time>
      </trkpt>
      <trkpt lat="47.190585" lon="15.455430">
        <ele>1210.988742</ele>
        <time>2024-07-02T14:53:09.686Z</time>
      </trkpt>
      <trkpt lat="47.190441" lon="15.455654">
        <ele>1213.008404</ele>
        <time>2024-07-02T14:53:23.684Z</time>
      </trkpt>
      <trkpt lat="47.190267" lon="15.456004">
        <ele>1215.848858</ele>
        <time>2024-07-02T14:53:42.854Z</time>
      </trkpt>
      <trkpt lat="47.190169" lon="15.456283">
        <ele>1217.905989</ele>
        <time>2024-07-02T14:53:57.494Z</time>
      </trkpt>
      <trkpt lat="47.190121" lon="15.456526">
        <ele>1219.563516</ele>
        <time>2024-07-02T14:54:08.862Z</time>
      </trkpt>
      <trkpt lat="47.190076" lon="15.457251">
        <ele>1224.506810</ele>
        <time>2024-07-02T14:54:44.747Z</time>
      </trkpt>
      <trkpt lat="47.190166" lon="15.457831">
        <ele>1228.634026</ele>
        <time>2024-07-02T14:55:14.036Z</time>
      </trkpt>
      <trkpt lat="47.190243" lon="15.458148">
        <ele>1230.969417</ele>
        <time>2024-07-02T14:55:30.058Z</time>
      </trkpt>
      <trkpt lat="47.190693" lon="15.459334">
        <ele>1240.396556</ele>
        <time>2024-07-02T14:56:34.433Z</time>
      </trkpt>
      <trkpt lat="47.190779" lon="15.459661">
        <ele>1242.843607</ele>
        <time>2024-07-02T14:56:50.400Z</time>
      </trkpt>
      <trkpt lat="47.190831" lon="15.459824">
        <ele>1244.100283</ele>
        <time>2024-07-02T14:56:58.989Z</time>
      </trkpt>
      <trkpt lat="47.191097" lon="15.460379">
        <ele>1248.839991</ele>
        <time>2024-07-02T14:57:32.091Z</time>
      </trkpt>
      <trkpt lat="47.191294" lon="15.460859">
        <ele>1252.753382</ele>
        <time>2024-07-02T14:57:58.661Z</time>
      </trkpt>
      <trkpt lat="47.191812" lon="15.462679">
        <ele>1267.134086</ele>
        <time>2024-07-02T14:59:34.887Z</time>
      </trkpt>
      <trkpt lat="47.192003" lon="15.463347">
        <ele>1272.562967</ele>
        <time>2024-07-02T15:00:12.717Z</time>
      </trkpt>
      <trkpt lat="47.192226" lon="15.463975">
        <ele>1277.870835</ele>
        <time>2024-07-02T15:00:50.176Z</time>
      </trkpt>
      <trkpt lat="47.192248" lon="15.464018">
        <ele>1278.257395</ele>
        <time>2024-07-02T15:00:52.951Z</time>
      </trkpt>
      <trkpt lat="47.192459" lon="15.464422">
        <ele>1281.806487</ele>
        <time>2024-07-02T15:01:18.811Z</time>
      </trkpt>
      <trkpt lat="47.192656" lon="15.464715">
        <ele>1284.677443</ele>
        <time>2024-07-02T15:01:39.196Z</time>
      </trkpt>
      <trkpt lat="47.192824" lon="15.464950">
        <ele>1287.053269</ele>
        <time>2024-07-02T15:01:55.870Z</time>
      </trkpt>
      <trkpt lat="47.192898" lon="15.465032">
        <ele>1288.002763</ele>
        <time>2024-07-02T15:02:02.489Z</time>
      </trkpt>
      <trkpt lat="47.193144" lon="15.465305">
        <ele>1291.160888</ele>
        <time>2024-07-02T15:02:24.286Z</time>
      </trkpt>
      <trkpt lat="47.193339" lon="15.465589">
        <ele>1293.973002</ele>
        <time>2024-07-02T15:02:42.609Z</time>
      </trkpt>
      <trkpt lat="47.194063" lon="15.467066">
        <ele>1305.735133</ele>
        <time>2024-07-02T15:04:01.248Z</time>
      </trkpt>
      <trkpt lat="47.194256" lon="15.467317">
        <ele>1308.136003</ele>
        <time>2024-07-02T15:04:18.258Z</time>
      </trkpt>
      <trkpt lat="47.194464" lon="15.467525">
        <ele>1310.480133</ele>
        <time>2024-07-02T15:04:35.082Z</time>
      </trkpt>
      <trkpt lat="47.194655" lon="15.467700">
        <ele>1312.577389</ele>
        <time>2024-07-02T15:04:50.543Z</time>
      </trkpt>
      <trkpt lat="47.195162" lon="15.468165">
        <ele>1318.446336</ele>
        <time>2024-07-02T15:05:32.428Z</time>
      </trkpt>
      <trkpt lat="47.195417" lon="15.468482">
        <ele>1321.748275</ele>
        <time>2024-07-02T15:05:55.561Z</time>
      </trkpt>
      <trkpt lat="47.195648" lon="15.468837">
        <ele>1325.052079</ele>
        <time>2024-07-02T15:06:19.515Z</time>
      </trkpt>
      <trkpt lat="47.196463" lon="15.469820">
        <ele>1335.201104</ele>
        <time>2024-07-02T15:07:29.829Z</time>
      </trkpt>
      <trkpt lat="47.196471" lon="15.469830">
        <ele>1335.298519</ele>
        <time>2024-07-02T15:07:30.451Z</time>
      </trkpt>
      <trkpt lat="47.196576" lon="15.469968">
        <ele>1336.605047</ele>
        <time>2024-07-02T15:07:38.110Z</time>
      </trkpt>
      <trkpt lat="47.196865" lon="15.470273">
        <ele>1339.905607</ele>
        <time>2024-07-02T15:08:01.156Z</time>
      </trkpt>
      <trkpt lat="47.197128" lon="15.470539">
        <ele>1342.867333</ele>
        <time>2024-07-02T15:08:22.505Z</time>
      </trkpt>
      <trkpt lat="47.197389" lon="15.470907">
        <ele>1346.221919</ele>
        <time>2024-07-02T15:08:46.469Z</time>
      </trkpt>
      <trkpt lat="47.197492" lon="15.470990">
        <ele>1347.311772</ele>
        <time>2024-07-02T15:08:54.977Z</time>
      </trkpt>
      <trkpt lat="47.197529" lon="15.470979">
        <ele>1347.662104</ele>
        <time>2024-07-02T15:08:57.367Z</time>
      </trkpt>
      <trkpt lat="47.197700" lon="15.471253">
        <ele>1350.246446</ele>
        <time>2024-07-02T15:09:16.559Z</time>
      </trkpt>
      <trkpt lat="47.197700" lon="15.471253">
        <ele>1350.246446</ele>
        <time>2024-07-02T15:09:16.704Z</time>
      </trkpt>
      <trkpt lat="47.197700" lon="15.471253">
        <ele>1350.246446</ele>
        <time>2024-07-02T15:09:16.704Z</time>
      </trkpt>
      <trkpt lat="47.197695" lon="15.471261">
        <ele>1350.322141</ele>
        <time>2024-07-02T15:09:17.023Z</time>
      </trkpt>
      <trkpt lat="47.197802" lon="15.471411">
        <ele>1351.836659</ele>
        <time>2024-07-02T15:09:23.357Z</time>
      </trkpt>
      <trkpt lat="47.197888" lon="15.471475">
        <ele>1352.824344</ele>
        <time>2024-07-02T15:09:27.495Z</time>
      </trkpt>
      <trkpt lat="47.198210" lon="15.471647">
        <ele>1356.335151</ele>
        <time>2024-07-02T15:09:42.201Z</time>
      </trkpt>
      <trkpt lat="47.198317" lon="15.471711">
        <ele>1357.518895</ele>
        <time>2024-07-02T15:09:47.158Z</time>
      </trkpt>
      <trkpt lat="47.198682" lon="15.472033">
        <ele>1361.880337</ele>
        <time>2024-07-02T15:10:05.444Z</time>
      </trkpt>
      <trkpt lat="47.198528" lon="15.471897">
        <ele>1363.721017</ele>
        <time>2024-07-02T15:10:13.151Z</time>
      </trkpt>
      <trkpt lat="47.198682" lon="15.472033">
        <ele>1365.561696</ele>
        <time>2024-07-02T15:10:20.896Z</time>
      </trkpt>
      <trkpt lat="47.198676" lon="15.472038">
        <ele>1365.632363</ele>
        <time>2024-07-02T15:10:21.193Z</time>
      </trkpt>
      <trkpt lat="47.198676" lon="15.472038">
        <ele>1365.632363</ele>
        <time>2024-07-02T15:10:21.193Z</time>
      </trkpt>
      <trkpt lat="47.198676" lon="15.472038">
        <ele>1365.632363</ele>
        <time>2024-07-02T15:10:21.291Z</time>
      </trkpt>
      <trkpt lat="47.198842" lon="15.472276">
        <ele>1368.206912</ele>
        <time>2024-07-02T15:10:41.740Z</time>
      </trkpt>
      <trkpt lat="47.199056" lon="15.472510">
        <ele>1371.233906</ele>
        <time>2024-07-02T15:11:04.676Z</time>
      </trkpt>
      <trkpt lat="47.199305" lon="15.472924">
        <ele>1375.499301</ele>
        <time>2024-07-02T15:11:37.860Z</time>
      </trkpt>
      <trkpt lat="47.199814" lon="15.473504">
        <ele>1382.808228</ele>
        <time>2024-07-02T15:12:35.051Z</time>
      </trkpt>
      <trkpt lat="47.200591" lon="15.474513">
        <ele>1393.658516</ele>
        <time>2024-07-02T15:14:08.668Z</time>
      </trkpt>
      <trkpt lat="47.200964" lon="15.474932">
        <ele>1398.376350</ele>
        <time>2024-07-02T15:14:47.903Z</time>
      </trkpt>
      <trkpt lat="47.201055" lon="15.475107">
        <ele>1399.881783</ele>
        <time>2024-07-02T15:14:59.707Z</time>
      </trkpt>
      <trkpt lat="47.201099" lon="15.475098">
        <ele>1400.328433</ele>
        <time>2024-07-02T15:15:03.245Z</time>
      </trkpt>
      <trkpt lat="47.201130" lon="15.475036">
        <ele>1400.854302</ele>
        <time>2024-07-02T15:15:07.411Z</time>
      </trkpt>
      <trkpt lat="47.201115" lon="15.474912">
        <ele>1401.714705</ele>
        <time>2024-07-02T15:15:14.142Z</time>
      </trkpt>
      <trkpt lat="47.201096" lon="15.474747">
        <ele>1402.857945</ele>
        <time>2024-07-02T15:15:22.699Z</time>
      </trkpt>
      <trkpt lat="47.201109" lon="15.474657">
        <ele>1403.486503</ele>
        <time>2024-07-02T15:15:27.446Z</time>
      </trkpt>
      <trkpt lat="47.201156" lon="15.474623">
        <ele>1404.013060</ele>
        <time>2024-07-02T15:15:31.415Z</time>
      </trkpt>
      <trkpt lat="47.201357" lon="15.474678">
        <ele>1405.216061</ele>
        <time>2024-07-02T15:15:45.818Z</time>
      </trkpt>
      <trkpt lat="47.201483" lon="15.474683">
        <ele>1405.713593</ele>
        <time>2024-07-02T15:15:54.132Z</time>
      </trkpt>
      <trkpt lat="47.201801" lon="15.474088">
        <ele>1407.743816</ele>
        <time>2024-07-02T15:16:25.150Z</time>
      </trkpt>
      <trkpt lat="47.201886" lon="15.473246">
        <ele>1410.026699</ele>
        <time>2024-07-02T15:16:53.186Z</time>
      </trkpt>
      <trkpt lat="47.201958" lon="15.471387">
        <ele>1410.850721</ele>
        <time>2024-07-02T15:17:32.857Z</time>
      </trkpt>
      <trkpt lat="47.201924" lon="15.471203">
        <ele>1410.707158</ele>
        <time>2024-07-02T15:17:36.339Z</time>
      </trkpt>
      <trkpt lat="47.201710" lon="15.470641">
        <ele>1410.222114</ele>
        <time>2024-07-02T15:17:47.632Z</time>
      </trkpt>
      <trkpt lat="47.201471" lon="15.470259">
        <ele>1409.831143</ele>
        <time>2024-07-02T15:17:57.082Z</time>
      </trkpt>
      <trkpt lat="47.200967" lon="15.469821">
        <ele>1410.910821</ele>
        <time>2024-07-02T15:18:14.620Z</time>
      </trkpt>
      <trkpt lat="47.200581" lon="15.469367">
        <ele>1411.969902</ele>
        <time>2024-07-02T15:18:34.720Z</time>
      </trkpt>
      <trkpt lat="47.200543" lon="15.469298">
        <ele>1412.099252</ele>
        <time>2024-07-02T15:18:37.255Z</time>
      </trkpt>
      <trkpt lat="47.200539" lon="15.469228">
        <ele>1412.201553</ele>
        <time>2024-07-02T15:18:39.357Z</time>
      </trkpt>
      <trkpt lat="47.199743" lon="15.468770">
        <ele>1413.626784</ele>
        <time>2024-07-02T15:19:28.053Z</time>
      </trkpt>
      <trkpt lat="47.199629" lon="15.468672">
        <ele>1413.626784</ele>
        <time>2024-07-02T15:19:36.934Z</time>
      </trkpt>
      <trkpt lat="47.199328" lon="15.468211">
        <ele>1413.626784</ele>
        <time>2024-07-02T15:20:04.365Z</time>
      </trkpt>
      <trkpt lat="47.199000" lon="15.467332">
        <ele>1413.626784</ele>
        <time>2024-07-02T15:20:49.316Z</time>
      </trkpt>
    </trkseg>
  </trk>
</gpx>